Regional Weather Roundup
Issued by NWS

Home | Current Version | Previous Version | Text Only | Print | Product List | Glossary On
Versions: 1 2 3 4 5 6 7 8 9 10 11 12 13 14 15 16 17 18 19 20 21 22 23 24 25 26 27 28
000
ASUS45 KREV 240610
RWRNV
NEVADA REGIONAL WEATHER ROUNDUP
NATIONAL WEATHER SERVICE RENO NV
1100 PM PDT SUN APR 23 2017

NOTE: "FAIR" INDICATES FEW OR NO CLOUDS BELOW 12,000 FEET WITH NO
SIGNIFICANT WEATHER AND/OR OBSTRUCTIONS TO VISIBILITY.

NVZ001-003-004-240700-
WESTERN NEVADA

CITY           SKY/WX    TMP DP  RH WIND       PRES   REMARKS
RENO           MOCLDY    51  27  39 W7        29.92F
6HR MIN TEMP:  51; 6HR MAX TEMP:  64;

CARSON CITY    FAIR      48  27  43 W12G18    29.93F
MINDEN         FAIR      39  23  52 S3        29.93F
FALLON         CLOUDY    54  19  25 NW9       29.87F
6HR MIN TEMP:  54; 6HR MAX TEMP:  69;

LOVELOCK       CLOUDY    54  25  32 W17       29.86F
6HR MIN TEMP:  54; 6HR MAX TEMP:  69;

HAWTHORNE      CLEAR     59  21  23 NW9       29.87F
$$

NVZ002-CAZ072-073-240700-
NORTHERN AND CENTRAL SIERRA

CITY           SKY/WX    TMP DP  RH WIND       PRES   REMARKS
S. LAKE TAHOE  CLEAR     40  28  62 SW6       29.99F
6HR MIN TEMP:  40; 6HR MAX TEMP:  52;

TRUCKEE        PTCLDY    34  28  80 CALM      29.98F
SQUAW VLY 8000   N/A     30  25  80 SW13        N/A
SUSANVILLE     PTCLDY    46  34  61 SW3       29.91F
MAMMOTH LAKES  FAIR      42  27  55 CALM      30.00R
6HR MIN TEMP:  42; 6HR MAX TEMP:  57;

BRIDGEPORT       N/A     43  19  38 CALM      29.97
$$

NVZ030-031-036-240700-
NORTHERN NEVADA

CITY           SKY/WX    TMP DP  RH WIND       PRES   REMARKS
ELKO           MOCLDY    44  30  57 W5        29.83F
6HR MIN TEMP:  43; 6HR MAX TEMP:  65;

WINNEMUCCA     CLOUDY    53  29  39 W16G25    29.84F
6HR MIN TEMP:  53; 6HR MAX TEMP:  66;

WENDOVER       MOCLDY    51  39  63 E7        29.80S
$$

NVZ035-037-240700-
CENTRAL NEVADA

CITY           SKY/WX    TMP DP  RH WIND       PRES   REMARKS
ELY            PTCLDY    37  30  75 SE12      29.89F
6HR MIN TEMP:  35; 6HR MAX TEMP:  56;

EUREKA           N/A     38  26  62 S6        29.87F
6HR MIN TEMP:  38; 6HR MAX TEMP:  63;

$$

NVZ013-014-240700-
SOUTH CENTRAL NEVADA

CITY           SKY/WX    TMP DP  RH WIND       PRES   REMARKS
TONOPAH          N/A     56  32  40 NW13      29.87F
6HR MIN TEMP:  55; 6HR MAX TEMP:  69;

$$

NVZ017-020-022-240700-
SOUTHERN NEVADA

CITY           SKY/WX    TMP DP  RH WIND       PRES   REMARKS
LAS VEGAS      PTCLDY    74  16  11 S14       29.66S
6HR MIN TEMP:  74; 6HR MAX TEMP:  89;

N. LAS VEGAS   CLEAR     74  18  12 SW10      29.66S
6HR MIN TEMP:  74; 6HR MAX TEMP:  88;

NELLIS AFB     CLEAR     75  23  14 S15       29.66R
6HR MIN TEMP:  75; 6HR MAX TEMP:  88;

HENDERSON      PTCLDY    71  20  14 S16       29.72R
6HR MIN TEMP:  71; 6HR MAX TEMP:  87;

MERCURY        CLEAR     65  20  17 NE8       29.73R
6HR MIN TEMP:  64; 6HR MAX TEMP:  84;

$$




USA.gov is the U.S. government's official web portal to all federal, state and local government web resources and services.